sat.trackr.live / text

‹ back to catalog

COSMOS 2571

NORAD 58172 · 2023-165C

PAYLOAD ACTIVE UNKNOWN

§ Identity

Operator
Country
CIS
Launch date
2023-10-27
Launch site
PLMSC
Launch vehicle
Mass (kg)
RCS (m²)

External: N2YO · Heavens-Above · Gunter

§ Orbital elements

Epoch: 2026-05-25T04:21:06.223392Z

Period
103.05 min
Inclination
67.1514°
Eccentricity
0.0016101
Mean motion
13.97332385 rev/d
Perigee alt
891.3 km
Apogee alt
914.8 km
Semi-major
7,281.2 km
B*
1.4105e-5
RAAN
343.3452°
Arg perigee
327.7901°
Mean anomaly
32.2199°
Rev number
13,114

§ Raw data

COSMOS 25711 58172U 23165C   26145.18132203 -.00000056  00000+0  14105-4 0  99942 58172  67.1514 343.3452 0016101 327.7901  32.2199 13.97332385131141

JSON: /api/v1/satellites/58172 · /tle

For live sub-satellite position, see the globe view (requires WebGL).

§ Visibility from observer

Set your observer location to see the next 7 days of passes ≥ 10°. The values pass through the URL so the page stays shareable.

No JS? Fill the form by hand. The geolocation button needs JavaScript.